owner,sensor,date,latitude,longitude,vertical_datum,sea_water_practical_salinity,qcFlag 
SCCF RECON,ioos:station:SCCF:11:1,2016-04-01T00:00:00Z,26.4679,-82.0631,2.1,32.71,1111122 
SCCF RECON,ioos:station:SCCF:11:1,2016-04-01T01:00:00Z,26.4679,-82.0631,2.04,32.8,1111122 
SCCF RECON,ioos:station:SCCF:11:1,2016-04-01T02:00:00Z,26.4679,-82.0631,1.96,30.34,1111122 
SCCF RECON,ioos:station:SCCF:11:1,2016-04-01T03:00:00Z,26.4679,-82.0631,1.86,28.03,1111122 
SCCF RECON,ioos:station:SCCF:11:1,2016-04-01T04:00:00Z,26.4679,-82.0631,1.77,28.16,1111122 
SCCF RECON,ioos:station:SCCF:11:1,2016-04-01T05:00:00Z,26.4679,-82.0631,1.69,28.52,1111122 
SCCF RECON,ioos:station:SCCF:11:1,2016-04-01T06:00:00Z,26.4679,-82.0631,1.6,28.64,1111122 
SCCF RECON,ioos:station:SCCF:11:1,2016-04-01T07:00:00Z,26.4679,-82.0631,1.55,29.31,1111122 
SCCF RECON,ioos:station:SCCF:11:1,2016-04-01T08:00:00Z,26.4679,-82.0631,1.57,29.98,1111122 
SCCF RECON,ioos:station:SCCF:11:1,2016-04-01T09:00:00Z,26.4679,-82.0631,1.65,31.88,1111122 
SCCF RECON,ioos:station:SCCF:11:1,2016-04-01T10:00:00Z,26.4679,-82.0631,1.75,30.74,1111122 
SCCF RECON,ioos:station:SCCF:11:1,2016-04-01T11:00:00Z,26.4679,-82.0631,1.83,30.49,1111122 
SCCF RECON,ioos:station:SCCF:11:1,2016-04-01T12:00:00Z,26.4679,-82.0631,1.9,30.45,1111122 
SCCF RECON,ioos:station:SCCF:11:1,2016-04-01T13:00:00Z,26.4679,-82.0631,1.962,30.67,1111122 
SCCF RECON,ioos:station:SCCF:11:1,2016-04-01T14:00:00Z,26.4679,-82.0631,1.992,31.14,1111122 
SCCF RECON,ioos:station:SCCF:11:1,2016-04-01T15:00:00Z,26.4679,-82.0631,1.981,31.24,1111122 
SCCF RECON,ioos:station:SCCF:11:1,2016-04-01T16:00:00Z,26.4679,-82.0631,1.941,32.2,1111122 
SCCF RECON,ioos:station:SCCF:11:1,2016-04-01T17:00:00Z,26.4679,-82.0631,1.903,31.9,1111122 
SCCF RECON,ioos:station:SCCF:11:1,2016-04-01T18:00:00Z,26.4679,-82.0631,1.899,32.5,1111122 
SCCF RECON,ioos:station:SCCF:11:1,2016-04-01T19:00:00Z,26.4679,-82.0631,1.893,33.12,1111122 
SCCF RECON,ioos:station:SCCF:11:1,2016-04-01T20:00:00Z,26.4679,-82.0631,1.894,32.5,1111122 
SCCF RECON,ioos:station:SCCF:11:1,2016-04-01T21:00:00Z,26.4679,-82.0631,1.949,33.26,1111122 
SCCF RECON,ioos:station:SCCF:11:1,2016-04-01T22:00:00Z,26.4679,-82.0631,1.99,33.3,1111122 
SCCF RECON,ioos:station:SCCF:11:1,2016-04-01T23:00:00Z,26.4679,-82.0631,2.0,33.31,1111122 
SCCF RECON,ioos:station:SCCF:11:1,2016-04-02T00:00:00Z,26.4679,-82.0631,2.03,33.33,1111122 
SCCF RECON,ioos:station:SCCF:11:1,2016-04-02T01:00:00Z,26.4679,-82.0631,2.03,33.33,1111122 
SCCF RECON,ioos:station:SCCF:11:1,2016-04-02T02:00:00Z,26.4679,-82.0631,2.013,33.31,1111122 
SCCF RECON,ioos:station:SCCF:11:1,2016-04-02T03:00:00Z,26.4679,-82.0631,1.98,33.34,1111122 
SCCF RECON,ioos:station:SCCF:11:1,2016-04-02T04:00:00Z,26.4679,-82.0631,1.886,32.42,1111122 
SCCF RECON,ioos:station:SCCF:11:1,2016-04-02T05:00:00Z,26.4679,-82.0631,1.75,30.35,1111122 
SCCF RECON,ioos:station:SCCF:11:1,2016-04-02T06:00:00Z,26.4679,-82.0631,1.63,31.31,1111122 
SCCF RECON,ioos:station:SCCF:11:1,2016-04-02T07:00:00Z,26.4679,-82.0631,1.525,30.72,1111122 
SCCF RECON,ioos:station:SCCF:11:1,2016-04-02T08:00:00Z,26.4679,-82.0631,1.49,30.61,1111122 
SCCF RECON,ioos:station:SCCF:11:1,2016-04-02T09:00:00Z,26.4679,-82.0631,1.51,31.7,1111122 
SCCF RECON,ioos:station:SCCF:11:1,2016-04-02T10:00:00Z,26.4679,-82.0631,1.63,33.23,1111122 
SCCF RECON,ioos:station:SCCF:11:1,2016-04-02T11:00:00Z,26.4679,-82.0631,1.768,33.3,1111122 
SCCF RECON,ioos:station:SCCF:11:1,2016-04-02T12:00:00Z,26.4679,-82.0631,1.851,33.37,1111122 
SCCF RECON,ioos:station:SCCF:11:1,2016-04-02T13:00:00Z,26.4679,-82.0631,1.952,33.33,1111122 
SCCF RECON,ioos:station:SCCF:11:1,2016-04-02T14:00:00Z,26.4679,-82.0631,2.011,33.4,1111122 
SCCF RECON,ioos:station:SCCF:11:1,2016-04-02T15:00:00Z,26.4679,-82.0631,2.05,33.36,1111122 
SCCF RECON,ioos:station:SCCF:11:1,2016-04-02T16:00:00Z,26.4679,-82.0631,2.062,33.37,1111122 
SCCF RECON,ioos:station:SCCF:11:1,2016-04-02T17:00:00Z,26.4679,-82.0631,2.006,33.37,1111122 
SCCF RECON,ioos:station:SCCF:11:1,2016-04-02T18:00:00Z,26.4679,-82.0631,1.882,31.54,1111122 
SCCF RECON,ioos:station:SCCF:11:1,2016-04-02T19:00:00Z,26.4679,-82.0631,1.808,31.52,1111122 
SCCF RECON,ioos:station:SCCF:11:1,2016-04-02T20:00:00Z,26.4679,-82.0631,1.78,32.32,1111122 
SCCF RECON,ioos:station:SCCF:11:1,2016-04-02T21:00:00Z,26.4679,-82.0631,1.78,32.65,1111122 
SCCF RECON,ioos:station:SCCF:11:1,2016-04-02T22:00:00Z,26.4679,-82.0631,1.82,32.45,1111122 
SCCF RECON,ioos:station:SCCF:11:1,2016-04-02T23:00:00Z,26.4679,-82.0631,1.909,33.54,1111122 
SCCF RECON,ioos:station:SCCF:11:1,2016-04-03T00:00:00Z,26.4679,-82.0631,2.011,33.52,1111122 
SCCF RECON,ioos:station:SCCF:11:1,2016-04-03T01:00:00Z,26.4679,-82.0631,2.051,33.49,1111122 
SCCF RECON,ioos:station:SCCF:11:1,2016-04-03T02:00:00Z,26.4679,-82.0631,2.066,33.0,1111122 
SCCF RECON,ioos:station:SCCF:11:1,2016-04-03T03:00:00Z,26.4679,-82.0631,1.97,31.88,1111122 
SCCF RECON,ioos:station:SCCF:11:1,2016-04-03T04:00:00Z,26.4679,-82.0631,1.87,31.5,1111122 
SCCF RECON,ioos:station:SCCF:11:1,2016-04-03T05:00:00Z,26.4679,-82.0631,1.78,31.2,1111122 
SCCF RECON,ioos:station:SCCF:11:1,2016-04-03T06:00:00Z,26.4679,-82.0631,1.682,31.09,1111122 
SCCF RECON,ioos:station:SCCF:11:1,2016-04-03T07:00:00Z,26.4679,-82.0631,1.61,31.09,1111122 
SCCF RECON,ioos:station:SCCF:11:1,2016-04-03T08:00:00Z,26.4679,-82.0631,1.508,31.15,1111122 
SCCF RECON,ioos:station:SCCF:11:1,2016-04-03T09:00:00Z,26.4679,-82.0631,1.43,31.04,1111122 
SCCF RECON,ioos:station:SCCF:11:1,2016-04-03T10:00:00Z,26.4679,-82.0631,1.407,31.47,1111122 
SCCF RECON,ioos:station:SCCF:11:1,2016-04-03T11:00:00Z,26.4679,-82.0631,1.46,32.04,1111122 
SCCF RECON,ioos:station:SCCF:11:1,2016-04-03T12:00:00Z,26.4679,-82.0631,1.53,32.69,1111122 
SCCF RECON,ioos:station:SCCF:11:1,2016-04-03T13:00:00Z,26.4679,-82.0631,1.637,32.68,1111122 
SCCF RECON,ioos:station:SCCF:11:1,2016-04-03T14:00:00Z,26.4679,-82.0631,1.732,32.68,1111122 
SCCF RECON,ioos:station:SCCF:11:1,2016-04-03T15:00:00Z,26.4679,-82.0631,1.771,32.68,1111122 
SCCF RECON,ioos:station:SCCF:11:1,2016-04-03T16:00:00Z,26.4679,-82.0631,1.85,32.37,1111122 
SCCF RECON,ioos:station:SCCF:11:1,2016-04-03T17:00:00Z,26.4679,-82.0631,1.836,31.51,1111122 
SCCF RECON,ioos:station:SCCF:11:1,2016-04-03T18:00:00Z,26.4679,-82.0631,1.75,32.51,1111122 
SCCF RECON,ioos:station:SCCF:11:1,2016-04-03T19:00:00Z,26.4679,-82.0631,1.667,32.37,1111122 
SCCF RECON,ioos:station:SCCF:11:1,2016-04-03T20:00:00Z,26.4679,-82.0631,1.6,32.0,1111122 
SCCF RECON,ioos:station:SCCF:11:1,2016-04-03T21:00:00Z,26.4679,-82.0631,1.588,31.94,1111122 
SCCF RECON,ioos:station:SCCF:11:1,2016-04-03T22:00:00Z,26.4679,-82.0631,1.645,31.61,1111122 
SCCF RECON,ioos:station:SCCF:11:1,2016-04-03T23:00:00Z,26.4679,-82.0631,1.75,27.57,1111122 
SCCF RECON,ioos:station:SCCF:11:1,2016-04-04T00:00:00Z,26.4679,-82.0631,1.87,28.5,1111122 
SCCF RECON,ioos:station:SCCF:11:1,2016-04-04T01:00:00Z,26.4679,-82.0631,1.97,29.41,1111122 
SCCF RECON,ioos:station:SCCF:11:1,2016-04-04T02:00:00Z,26.4679,-82.0631,2.042,28.42,1111122 
SCCF RECON,ioos:station:SCCF:11:1,2016-04-04T03:00:00Z,26.4679,-82.0631,2.09,30.17,1111122 
SCCF RECON,ioos:station:SCCF:11:1,2016-04-04T04:00:00Z,26.4679,-82.0631,2.08,30.91,1111122 
SCCF RECON,ioos:station:SCCF:11:1,2016-04-04T05:00:00Z,26.4679,-82.0631,1.978,29.88,1111122 
SCCF RECON,ioos:station:SCCF:11:1,2016-04-04T06:00:00Z,26.4679,-82.0631,1.838,29.48,1111122 
SCCF RECON,ioos:station:SCCF:11:1,2016-04-04T07:00:00Z,26.4679,-82.0631,1.693,30.5,1111122 
SCCF RECON,ioos:station:SCCF:11:1,2016-04-04T08:00:00Z,26.4679,-82.0631,1.569,30.9,1111122 
SCCF RECON,ioos:station:SCCF:11:1,2016-04-04T09:00:00Z,26.4679,-82.0631,1.49,31.04,1111122 
SCCF RECON,ioos:station:SCCF:11:1,2016-04-04T10:00:00Z,26.4679,-82.0631,1.443,30.91,1111122 
SCCF RECON,ioos:station:SCCF:11:1,2016-04-04T11:00:00Z,26.4679,-82.0631,1.47,30.97,1111122 
SCCF RECON,ioos:station:SCCF:11:1,2016-04-04T12:00:00Z,26.4679,-82.0631,1.6,30.49,1111122 
SCCF RECON,ioos:station:SCCF:11:1,2016-04-04T13:00:00Z,26.4679,-82.0631,1.749,28.54,1111122 
SCCF RECON,ioos:station:SCCF:11:1,2016-04-04T14:00:00Z,26.4679,-82.0631,1.869,27.56,1111122 
SCCF RECON,ioos:station:SCCF:11:1,2016-04-04T15:00:00Z,26.4679,-82.0631,1.965,28.75,1111122 
SCCF RECON,ioos:station:SCCF:11:1,2016-04-04T16:00:00Z,26.4679,-82.0631,2.05,27.66,1111122 
SCCF RECON,ioos:station:SCCF:11:1,2016-04-04T17:00:00Z,26.4679,-82.0631,2.029,28.05,1111122 
SCCF RECON,ioos:station:SCCF:11:1,2016-04-04T18:00:00Z,26.4679,-82.0631,1.91,28.5,1111122 
SCCF RECON,ioos:station:SCCF:11:1,2016-04-04T19:00:00Z,26.4679,-82.0631,1.771,29.22,1111122 
SCCF RECON,ioos:station:SCCF:11:1,2016-04-04T20:00:00Z,26.4679,-82.0631,1.656,29.51,1111122 
SCCF RECON,ioos:station:SCCF:11:1,2016-04-04T21:00:00Z,26.4679,-82.0631,1.56,29.56,1111122 
SCCF RECON,ioos:station:SCCF:11:1,2016-04-04T22:00:00Z,26.4679,-82.0631,1.54,29.15,1111122 
SCCF RECON,ioos:station:SCCF:11:1,2016-04-04T23:00:00Z,26.4679,-82.0631,1.6,29.43,1111122 
SCCF RECON,ioos:station:SCCF:11:1,2016-04-05T00:00:00Z,26.4679,-82.0631,1.75,29.44,1111122 
SCCF RECON,ioos:station:SCCF:11:1,2016-04-05T01:00:00Z,26.4679,-82.0631,1.89,29.57,1111122 
SCCF RECON,ioos:station:SCCF:11:1,2016-04-05T02:00:00Z,26.4679,-82.0631,1.992,29.61,1111122 
SCCF RECON,ioos:station:SCCF:11:1,2016-04-05T03:00:00Z,26.4679,-82.0631,2.082,29.32,1111122 
SCCF RECON,ioos:station:SCCF:11:1,2016-04-05T04:00:00Z,26.4679,-82.0631,2.13,29.37,1111122 
SCCF RECON,ioos:station:SCCF:11:1,2016-04-05T05:00:00Z,26.4679,-82.0631,2.102,29.33,1111122 
SCCF RECON,ioos:station:SCCF:11:1,2016-04-05T06:00:00Z,26.4679,-82.0631,1.97,29.38,1111122 
SCCF RECON,ioos:station:SCCF:11:1,2016-04-05T07:00:00Z,26.4679,-82.0631,1.81,29.66,1111122 
SCCF RECON,ioos:station:SCCF:11:1,2016-04-05T08:00:00Z,26.4679,-82.0631,1.66,29.79,1111122 
SCCF RECON,ioos:station:SCCF:11:1,2016-04-05T09:00:00Z,26.4679,-82.0631,1.541,29.91,1111122 
SCCF RECON,ioos:station:SCCF:11:1,2016-04-05T10:00:00Z,26.4679,-82.0631,1.443,30.05,1111122 
SCCF RECON,ioos:station:SCCF:11:1,2016-04-05T11:00:00Z,26.4679,-82.0631,1.4,30.11,1111122 
SCCF RECON,ioos:station:SCCF:11:1,2016-04-05T12:00:00Z,26.4679,-82.0631,1.468,30.03,1111122 
SCCF RECON,ioos:station:SCCF:11:1,2016-04-05T13:00:00Z,26.4679,-82.0631,1.616,29.89,1111122 
SCCF RECON,ioos:station:SCCF:11:1,2016-04-05T14:00:00Z,26.4679,-82.0631,1.791,29.81,1111122 
SCCF RECON,ioos:station:SCCF:11:1,2016-04-05T15:00:00Z,26.4679,-82.0631,1.933,29.16,1111122 
SCCF RECON,ioos:station:SCCF:11:1,2016-04-05T16:00:00Z,26.4679,-82.0631,2.042,29.07,1111122 
SCCF RECON,ioos:station:SCCF:11:1,2016-04-05T17:00:00Z,26.4679,-82.0631,2.077,28.26,1111122 
SCCF RECON,ioos:station:SCCF:11:1,2016-04-05T18:00:00Z,26.4679,-82.0631,2.023,28.96,1111122 
SCCF RECON,ioos:station:SCCF:11:1,2016-04-05T19:00:00Z,26.4679,-82.0631,1.885,29.38,1111122 
SCCF RECON,ioos:station:SCCF:11:1,2016-04-05T20:00:00Z,26.4679,-82.0631,1.739,29.72,1111122 
SCCF RECON,ioos:station:SCCF:11:1,2016-04-05T21:00:00Z,26.4679,-82.0631,1.613,29.85,1111122 
SCCF RECON,ioos:station:SCCF:11:1,2016-04-05T22:00:00Z,26.4679,-82.0631,1.526,30.0,1111122 
SCCF RECON,ioos:station:SCCF:11:1,2016-04-05T23:00:00Z,26.4679,-82.0631,1.507,29.74,1111122 
SCCF RECON,ioos:station:SCCF:11:1,2016-04-06T00:00:00Z,26.4679,-82.0631,1.593,29.86,1111122 
SCCF RECON,ioos:station:SCCF:11:1,2016-04-06T01:00:00Z,26.4679,-82.0631,1.75,29.8,1111122 
SCCF RECON,ioos:station:SCCF:11:1,2016-04-06T02:00:00Z,26.4679,-82.0631,1.92,29.67,1111122 
SCCF RECON,ioos:station:SCCF:11:1,2016-04-06T03:00:00Z,26.4679,-82.0631,2.052,29.67,1111122 
SCCF RECON,ioos:station:SCCF:11:1,2016-04-06T04:00:00Z,26.4679,-82.0631,2.14,29.48,1111122 
SCCF RECON,ioos:station:SCCF:11:1,2016-04-06T05:00:00Z,26.4679,-82.0631,2.16,28.35,1111122 
SCCF RECON,ioos:station:SCCF:11:1,2016-04-06T06:00:00Z,26.4679,-82.0631,2.1,28.77,1111122 
SCCF RECON,ioos:station:SCCF:11:1,2016-04-06T07:00:00Z,26.4679,-82.0631,1.971,29.64,1111122 
SCCF RECON,ioos:station:SCCF:11:1,2016-04-06T08:00:00Z,26.4679,-82.0631,1.818,29.93,1111122 
SCCF RECON,ioos:station:SCCF:11:1,2016-04-06T09:00:00Z,26.4679,-82.0631,1.668,30.0,1111122 
SCCF RECON,ioos:station:SCCF:11:1,2016-04-06T10:00:00Z,26.4679,-82.0631,1.534,30.09,1111122 
SCCF RECON,ioos:station:SCCF:11:1,2016-04-06T11:00:00Z,26.4679,-82.0631,1.447,30.18,1111122 
SCCF RECON,ioos:station:SCCF:11:1,2016-04-06T12:00:00Z,26.4679,-82.0631,1.44,30.16,1111122 
SCCF RECON,ioos:station:SCCF:11:1,2016-04-06T13:00:00Z,26.4679,-82.0631,1.59,29.87,1111122 
SCCF RECON,ioos:station:SCCF:11:1,2016-04-06T14:00:00Z,26.4679,-82.0631,1.787,29.7,1111122 
SCCF RECON,ioos:station:SCCF:11:1,2016-04-06T15:00:00Z,26.4679,-82.0631,1.933,29.31,1111122 
SCCF RECON,ioos:station:SCCF:11:1,2016-04-06T16:00:00Z,26.4679,-82.0631,2.031,29.21,1111122 
SCCF RECON,ioos:station:SCCF:11:1,2016-04-06T17:00:00Z,26.4679,-82.0631,2.11,29.58,1111122 
SCCF RECON,ioos:station:SCCF:11:1,2016-04-06T18:00:00Z,26.4679,-82.0631,2.121,30.26,1111122 
SCCF RECON,ioos:station:SCCF:11:1,2016-04-06T19:00:00Z,26.4679,-82.0631,2.044,30.21,1111122 
SCCF RECON,ioos:station:SCCF:11:1,2016-04-06T20:00:00Z,26.4679,-82.0631,1.9,29.3,1111122 
SCCF RECON,ioos:station:SCCF:11:1,2016-04-06T21:00:00Z,26.4679,-82.0631,1.78,29.63,1111122 
SCCF RECON,ioos:station:SCCF:11:1,2016-04-06T22:00:00Z,26.4679,-82.0631,1.6,29.67,1111122 
SCCF RECON,ioos:station:SCCF:11:1,2016-04-06T23:00:00Z,26.4679,-82.0631,1.498,29.88,1111122 
SCCF RECON,ioos:station:SCCF:11:1,2016-04-07T00:00:00Z,26.4679,-82.0631,1.46,29.99,1111122 
SCCF RECON,ioos:station:SCCF:11:1,2016-04-07T01:00:00Z,26.4679,-82.0631,1.59,29.86,1111122 
SCCF RECON,ioos:station:SCCF:11:1,2016-04-07T02:00:00Z,26.4679,-82.0631,1.79,29.57,1111122 
SCCF RECON,ioos:station:SCCF:11:1,2016-04-07T03:00:00Z,26.4679,-82.0631,1.939,28.91,1111122 
SCCF RECON,ioos:station:SCCF:11:1,2016-04-07T04:00:00Z,26.4679,-82.0631,2.06,30.39,1111122 
SCCF RECON,ioos:station:SCCF:11:1,2016-04-07T05:00:00Z,26.4679,-82.0631,2.196,32.23,1111122 
SCCF RECON,ioos:station:SCCF:11:1,2016-04-07T06:00:00Z,26.4679,-82.0631,2.25,33.04,1111122 
SCCF RECON,ioos:station:SCCF:11:1,2016-04-07T07:00:00Z,26.4679,-82.0631,2.18,33.06,1111122 
SCCF RECON,ioos:station:SCCF:11:1,2016-04-07T08:00:00Z,26.4679,-82.0631,2.029,30.32,1111122 
SCCF RECON,ioos:station:SCCF:11:1,2016-04-07T09:00:00Z,26.4679,-82.0631,1.86,30.22,1111122 
SCCF RECON,ioos:station:SCCF:11:1,2016-04-07T10:00:00Z,26.4679,-82.0631,1.75,30.05,1111122 
SCCF RECON,ioos:station:SCCF:11:1,2016-04-07T11:00:00Z,26.4679,-82.0631,1.64,29.98,1111122 
SCCF RECON,ioos:station:SCCF:11:1,2016-04-07T12:00:00Z,26.4679,-82.0631,1.6,29.99,1111122 
SCCF RECON,ioos:station:SCCF:11:1,2016-04-07T13:00:00Z,26.4679,-82.0631,1.671,30.23,1111122 
SCCF RECON,ioos:station:SCCF:11:1,2016-04-07T14:00:00Z,26.4679,-82.0631,1.869,31.78,1111122 
SCCF RECON,ioos:station:SCCF:11:1,2016-04-07T15:00:00Z,26.4679,-82.0631,2.05,30.95,1111122 
SCCF RECON,ioos:station:SCCF:11:1,2016-04-07T16:00:00Z,26.4679,-82.0631,2.16,31.68,1111122 
SCCF RECON,ioos:station:SCCF:11:1,2016-04-07T17:00:00Z,26.4679,-82.0631,2.239,31.63,1111122 
SCCF RECON,ioos:station:SCCF:11:1,2016-04-07T18:00:00Z,26.4679,-82.0631,2.27,31.85,1111122 
SCCF RECON,ioos:station:SCCF:11:1,2016-04-07T19:00:00Z,26.4679,-82.0631,2.22,31.35,1111122 
SCCF RECON,ioos:station:SCCF:11:1,2016-04-07T20:00:00Z,26.4679,-82.0631,2.06,30.74,1111122 
SCCF RECON,ioos:station:SCCF:11:1,2016-04-07T21:00:00Z,26.4679,-82.0631,1.88,30.59,1111122 
SCCF RECON,ioos:station:SCCF:11:1,2016-04-07T22:00:00Z,26.4679,-82.0631,1.735,30.63,1111122 
SCCF RECON,ioos:station:SCCF:11:1,2016-04-07T23:00:00Z,26.4679,-82.0631,1.593,30.61,1111122 
SCCF RECON,ioos:station:SCCF:11:1,2016-04-08T00:00:00Z,26.4679,-82.0631,1.47,30.55,1111122 
SCCF RECON,ioos:station:SCCF:11:1,2016-04-08T01:00:00Z,26.4679,-82.0631,1.438,30.53,1111122 
SCCF RECON,ioos:station:SCCF:11:1,2016-04-08T02:00:00Z,26.4679,-82.0631,1.569,30.75,1111122 
SCCF RECON,ioos:station:SCCF:11:1,2016-04-08T03:00:00Z,26.4679,-82.0631,1.79,30.75,1111122 
SCCF RECON,ioos:station:SCCF:11:1,2016-04-08T04:00:00Z,26.4679,-82.0631,1.96,30.12,1111122 
SCCF RECON,ioos:station:SCCF:11:1,2016-04-08T05:00:00Z,26.4679,-82.0631,2.1,30.95,1111122 
SCCF RECON,ioos:station:SCCF:11:1,2016-04-08T06:00:00Z,26.4679,-82.0631,2.188,30.84,1111122 
SCCF RECON,ioos:station:SCCF:11:1,2016-04-08T07:00:00Z,26.4679,-82.0631,2.22,31.34,1111122 
SCCF RECON,ioos:station:SCCF:11:1,2016-04-08T08:00:00Z,26.4679,-82.0631,2.13,30.65,1111122 
SCCF RECON,ioos:station:SCCF:11:1,2016-04-08T09:00:00Z,26.4679,-82.0631,1.97,30.51,1111122 
SCCF RECON,ioos:station:SCCF:11:1,2016-04-08T10:00:00Z,26.4679,-82.0631,1.85,30.5,1111122 
SCCF RECON,ioos:station:SCCF:11:1,2016-04-08T11:00:00Z,26.4679,-82.0631,1.76,30.51,1111122 
SCCF RECON,ioos:station:SCCF:11:1,2016-04-08T12:00:00Z,26.4679,-82.0631,1.663,30.5,1111122 
SCCF RECON,ioos:station:SCCF:11:1,2016-04-08T13:00:00Z,26.4679,-82.0631,1.66,30.5,1111122 
SCCF RECON,ioos:station:SCCF:11:1,2016-04-08T14:00:00Z,26.4679,-82.0631,1.79,30.59,1111122 
SCCF RECON,ioos:station:SCCF:11:1,2016-04-08T15:00:00Z,26.4679,-82.0631,1.99,30.59,1111122 
SCCF RECON,ioos:station:SCCF:11:1,2016-04-08T16:00:00Z,26.4679,-82.0631,2.14,30.19,1111122 
SCCF RECON,ioos:station:SCCF:11:1,2016-04-08T17:00:00Z,26.4679,-82.0631,2.24,30.0,1111122 
SCCF RECON,ioos:station:SCCF:11:1,2016-04-08T18:00:00Z,26.4679,-82.0631,2.316,30.6,1111122 
SCCF RECON,ioos:station:SCCF:11:1,2016-04-08T19:00:00Z,26.4679,-82.0631,2.3,30.71,1111122 
SCCF RECON,ioos:station:SCCF:11:1,2016-04-08T20:00:00Z,26.4679,-82.0631,2.189,30.18,1111122 
SCCF RECON,ioos:station:SCCF:11:1,2016-04-08T21:00:00Z,26.4679,-82.0631,1.991,30.11,1111122 
SCCF RECON,ioos:station:SCCF:11:1,2016-04-08T22:00:00Z,26.4679,-82.0631,1.824,30.29,1111122 
SCCF RECON,ioos:station:SCCF:11:1,2016-04-08T23:00:00Z,26.4679,-82.0631,1.67,30.33,1111122 
SCCF RECON,ioos:station:SCCF:11:1,2016-04-09T00:00:00Z,26.4679,-82.0631,1.52,30.39,1111122 
SCCF RECON,ioos:station:SCCF:11:1,2016-04-09T01:00:00Z,26.4679,-82.0631,1.409,30.42,1111122 
SCCF RECON,ioos:station:SCCF:11:1,2016-04-09T02:00:00Z,26.4679,-82.0631,1.39,30.16,1111122 
SCCF RECON,ioos:station:SCCF:11:1,2016-04-09T03:00:00Z,26.4679,-82.0631,1.53,30.36,1111122 
SCCF RECON,ioos:station:SCCF:11:1,2016-04-09T04:00:00Z,26.4679,-82.0631,1.75,30.22,1111122 
SCCF RECON,ioos:station:SCCF:11:1,2016-04-09T05:00:00Z,26.4679,-82.0631,1.92,30.14,1111122 
SCCF RECON,ioos:station:SCCF:11:1,2016-04-09T06:00:00Z,26.4679,-82.0631,2.04,30.18,1111122 
SCCF RECON,ioos:station:SCCF:11:1,2016-04-09T07:00:00Z,26.4679,-82.0631,2.141,29.56,1111122 
SCCF RECON,ioos:station:SCCF:11:1,2016-04-09T08:00:00Z,26.4679,-82.0631,2.16,30.08,1111122 
SCCF RECON,ioos:station:SCCF:11:1,2016-04-09T09:00:00Z,26.4679,-82.0631,2.049,29.89,1111122 
SCCF RECON,ioos:station:SCCF:11:1,2016-04-09T10:00:00Z,26.4679,-82.0631,1.88,30.19,1111122 
SCCF RECON,ioos:station:SCCF:11:1,2016-04-09T11:00:00Z,26.4679,-82.0631,1.77,30.25,1111122 
SCCF RECON,ioos:station:SCCF:11:1,2016-04-09T12:00:00Z,26.4679,-82.0631,1.681,30.21,1111122 
SCCF RECON,ioos:station:SCCF:11:1,2016-04-09T13:00:00Z,26.4679,-82.0631,1.6,30.28,1111122 
SCCF RECON,ioos:station:SCCF:11:1,2016-04-09T14:00:00Z,26.4679,-82.0631,1.58,30.3,1111122 
SCCF RECON,ioos:station:SCCF:11:1,2016-04-09T15:00:00Z,26.4679,-82.0631,1.671,30.22,1111122 
SCCF RECON,ioos:station:SCCF:11:1,2016-04-09T16:00:00Z,26.4679,-82.0631,1.849,30.27,1111122 
SCCF RECON,ioos:station:SCCF:11:1,2016-04-09T17:00:00Z,26.4679,-82.0631,2.004,29.94,1111122 
SCCF RECON,ioos:station:SCCF:11:1,2016-04-09T18:00:00Z,26.4679,-82.0631,2.09,29.81,1111122 
SCCF RECON,ioos:station:SCCF:11:1,2016-04-09T19:00:00Z,26.4679,-82.0631,2.14,29.84,1111122 
SCCF RECON,ioos:station:SCCF:11:1,2016-04-09T20:00:00Z,26.4679,-82.0631,2.111,29.64,1111122 
SCCF RECON,ioos:station:SCCF:11:1,2016-04-09T21:00:00Z,26.4679,-82.0631,1.95,29.79,1111122 
SCCF RECON,ioos:station:SCCF:11:1,2016-04-09T22:00:00Z,26.4679,-82.0631,1.78,30.02,1111122 
SCCF RECON,ioos:station:SCCF:11:1,2016-04-09T23:00:00Z,26.4679,-82.0631,1.647,30.1,1111122 
SCCF RECON,ioos:station:SCCF:11:1,2016-04-10T00:00:00Z,26.4679,-82.0631,1.54,30.16,1111122 
SCCF RECON,ioos:station:SCCF:11:1,2016-04-10T01:00:00Z,26.4679,-82.0631,1.418,30.27,1111122 
SCCF RECON,ioos:station:SCCF:11:1,2016-04-10T02:00:00Z,26.4679,-82.0631,1.32,30.33,1111122 
SCCF RECON,ioos:station:SCCF:11:1,2016-04-10T03:00:00Z,26.4679,-82.0631,1.3,30.37,1111122 
SCCF RECON,ioos:station:SCCF:11:1,2016-04-10T04:00:00Z,26.4679,-82.0631,1.42,30.29,1111122 
SCCF RECON,ioos:station:SCCF:11:1,2016-04-10T05:00:00Z,26.4679,-82.0631,1.62,30.25,1111122 
SCCF RECON,ioos:station:SCCF:11:1,2016-04-10T06:00:00Z,26.4679,-82.0631,1.785,29.97,1111122 
SCCF RECON,ioos:station:SCCF:11:1,2016-04-10T07:00:00Z,26.4679,-82.0631,1.909,29.47,1111122 
SCCF RECON,ioos:station:SCCF:11:1,2016-04-10T08:00:00Z,26.4679,-82.0631,1.98,27.05,1111122 
SCCF RECON,ioos:station:SCCF:11:1,2016-04-10T09:00:00Z,26.4679,-82.0631,2.004,27.74,1111122 
SCCF RECON,ioos:station:SCCF:11:1,2016-04-10T10:00:00Z,26.4679,-82.0631,1.918,29.15,1111122 
SCCF RECON,ioos:station:SCCF:11:1,2016-04-10T11:00:00Z,26.4679,-82.0631,1.8,29.53,1111122 
SCCF RECON,ioos:station:SCCF:11:1,2016-04-10T12:00:00Z,26.4679,-82.0631,1.71,29.96,1111122 
SCCF RECON,ioos:station:SCCF:11:1,2016-04-10T13:00:00Z,26.4679,-82.0631,1.65,30.05,1111122 
SCCF RECON,ioos:station:SCCF:11:1,2016-04-10T14:00:00Z,26.4679,-82.0631,1.63,29.17,1111122 
SCCF RECON,ioos:station:SCCF:11:1,2016-04-10T15:00:00Z,26.4679,-82.0631,1.69,29.85,1111122 
SCCF RECON,ioos:station:SCCF:11:1,2016-04-10T16:00:00Z,26.4679,-82.0631,1.84,28.71,1111122 
SCCF RECON,ioos:station:SCCF:11:1,2016-04-10T17:00:00Z,26.4679,-82.0631,2.0,28.19,1111122 
SCCF RECON,ioos:station:SCCF:11:1,2016-04-10T18:00:00Z,26.4679,-82.0631,2.1,28.24,1111122 
SCCF RECON,ioos:station:SCCF:11:1,2016-04-10T19:00:00Z,26.4679,-82.0631,2.18,28.65,1111122 
SCCF RECON,ioos:station:SCCF:11:1,2016-04-10T20:00:00Z,26.4679,-82.0631,2.239,28.75,1111122 
SCCF RECON,ioos:station:SCCF:11:1,2016-04-10T21:00:00Z,26.4679,-82.0631,2.19,29.26,1111122 
SCCF RECON,ioos:station:SCCF:11:1,2016-04-10T22:00:00Z,26.4679,-82.0631,2.06,28.39,1111122 
SCCF RECON,ioos:station:SCCF:11:1,2016-04-10T23:00:00Z,26.4679,-82.0631,1.89,29.04,1111122 
SCCF RECON,ioos:station:SCCF:11:1,2016-04-11T00:00:00Z,26.4679,-82.0631,1.73,29.37,1111122 
SCCF RECON,ioos:station:SCCF:11:1,2016-04-11T01:00:00Z,26.4679,-82.0631,1.58,29.6,1111122 
SCCF RECON,ioos:station:SCCF:11:1,2016-04-11T02:00:00Z,26.4679,-82.0631,1.46,29.98,1111122 
SCCF RECON,ioos:station:SCCF:11:1,2016-04-11T03:00:00Z,26.4679,-82.0631,1.37,30.1,1111122 
SCCF RECON,ioos:station:SCCF:11:1,2016-04-11T04:00:00Z,26.4679,-82.0631,1.38,29.55,1111122 
SCCF RECON,ioos:station:SCCF:11:1,2016-04-11T05:00:00Z,26.4679,-82.0631,1.51,29.27,1111122 
SCCF RECON,ioos:station:SCCF:11:1,2016-04-11T06:00:00Z,26.4679,-82.0631,1.67,28.07,1111122 
SCCF RECON,ioos:station:SCCF:11:1,2016-04-11T07:00:00Z,26.4679,-82.0631,1.79,28.11,1111122 
SCCF RECON,ioos:station:SCCF:11:1,2016-04-11T08:00:00Z,26.4679,-82.0631,1.87,28.34,1111122 
SCCF RECON,ioos:station:SCCF:11:1,2016-04-11T09:00:00Z,26.4679,-82.0631,1.93,27.87,1111122 
SCCF RECON,ioos:station:SCCF:11:1,2016-04-11T10:00:00Z,26.4679,-82.0631,1.95,28.7,1111122 
SCCF RECON,ioos:station:SCCF:11:1,2016-04-11T11:00:00Z,26.4679,-82.0631,1.94,28.7,1111122 
SCCF RECON,ioos:station:SCCF:11:1,2016-04-11T12:00:00Z,26.4679,-82.0631,1.91,28.6,1111122 
SCCF RECON,ioos:station:SCCF:11:1,2016-04-11T13:00:00Z,26.4679,-82.0631,1.88,28.57,1111122 
SCCF RECON,ioos:station:SCCF:11:1,2016-04-11T14:00:00Z,26.4679,-82.0631,1.86,28.84,1111122 
SCCF RECON,ioos:station:SCCF:11:1,2016-04-11T15:00:00Z,26.4679,-82.0631,1.86,29.12,1111122 
SCCF RECON,ioos:station:SCCF:11:1,2016-04-11T16:00:00Z,26.4679,-82.0631,1.903,29.83,1111122 
SCCF RECON,ioos:station:SCCF:11:1,2016-04-11T17:00:00Z,26.4679,-82.0631,2.01,30.29,1111122 
SCCF RECON,ioos:station:SCCF:11:1,2016-04-11T18:00:00Z,26.4679,-82.0631,2.11,30.65,1111122 